Weather History for KADS - May, 2012

Change the Weather History Date:

Saturday, May 19, 2012

  Actual Average Record
Temperature  
Mean Temperature 78 °F -  
Max Temperature 87 °F 82 °F 96 °F (2006)
Min Temperature 69 °F 65 °F 53 °F (2002)
Cooling Degree Days 13    
Growing Degree Days 28 (Base 50)    
Moisture  
Dew Point 57 °F    
Average Humidity 53    
Maximum Humidity 78    
Minimum Humidity 29    
Precipitation  
Precipitation 0.00 in - - ()
Sea Level Pressure  
Sea Level Pressure 29.91 in    
Wind  
Wind Speed 13 mph (SSE)    
Max Wind Speed 21 mph    
Max Gust Speed 32 mph    
Visibility 10 miles    
Events      
Averages and records for this station are not official NWS values.
T = Trace of Precipitation, MM = Missing Value Source: NWS Daily Summary

Daily Weather History Graph

Daily Weather History Graph

Search for Another Location

Airport or City:

Trip Planner

Search our weather history database for the weather conditions in past years. The results will help you decide how hot, cold, wet, or windy it might be!

Date:

Astronomy

May. 19, 2012 Rise Set
Actual Time 6:25 AM CDT 8:22 PM CDT
Civil Twilight 5:57 AM CDT 8:50 PM CDT
Nautical Twilight 5:24 AM CDT 9:23 PM CDT
Astronomical Twilight 4:48 AM CDT 9:59 PM CDT
Moon 5:26 AM CDT (5/19) 7:29 PM CDT (5/19)
Length of Visible Light 14h 52m
Length of Day
13h 57m
Waning Crescent, 1% of the Moon is Illuminated
May 19
Waning Crescent
May 20
New
May 28
First Quarter
Jun 4
Full
Jun 11
Last Quarter

Hourly Weather History & Observations

Time (CDT) Temp. Heat Index Dew Point Humidity Pressure Visibility Wind Dir Wind Speed Gust Speed Precip Events Conditions
12:15 AM 77.0 °F - 53.6 °F 44% 29.88 in 10.0 mi South 12.7 mph - N/A   Clear
12:35 AM 75.2 °F - 53.6 °F 47% 29.88 in 10.0 mi SSE 12.7 mph 18.4 mph N/A   Clear
12:55 AM 75.2 °F - 53.6 °F 47% 29.88 in 10.0 mi SSE 15.0 mph 19.6 mph N/A   Clear
1:15 AM 73.4 °F - 53.6 °F 50% 29.88 in 10.0 mi SSE 13.8 mph 19.6 mph N/A   Clear
1:35 AM 73.4 °F - 55.4 °F 53% 29.88 in 10.0 mi South 13.8 mph - N/A   Clear
1:55 AM 73.4 °F - 55.4 °F 53% 29.88 in 10.0 mi South 13.8 mph 20.7 mph N/A   Clear
2:15 AM 73.4 °F - 55.4 °F 53% 29.88 in 10.0 mi South 15.0 mph 23.0 mph N/A   Clear
2:35 AM 73.4 °F - 55.4 °F 53% 29.88 in 10.0 mi South 11.5 mph 21.9 mph N/A   Clear
2:55 AM 73.4 °F - 57.2 °F 57% 29.88 in 10.0 mi South 13.8 mph 20.7 mph N/A   Clear
3:15 AM 71.6 °F - 57.2 °F 60% 29.88 in 10.0 mi South 11.5 mph 18.4 mph N/A   Clear
3:35 AM 71.6 °F - 57.2 °F 60% 29.88 in 10.0 mi South 8.1 mph 18.4 mph N/A   Clear
3:55 AM 71.6 °F - 59.0 °F 64% 29.88 in 10.0 mi South 10.4 mph 19.6 mph N/A   Clear
4:15 AM 71.6 °F - 59.0 °F 64% 29.88 in 10.0 mi South 9.2 mph 18.4 mph N/A   Clear
4:35 AM 71.6 °F - 59.0 °F 64% 29.88 in 10.0 mi South 10.4 mph 17.3 mph N/A   Clear
4:55 AM 69.8 °F - 60.8 °F 73% 29.88 in 10.0 mi South 12.7 mph 17.3 mph N/A   Clear
5:15 AM 69.8 °F - 60.8 °F 73% 29.88 in 10.0 mi South 13.8 mph 19.6 mph N/A   Clear
5:35 AM 69.8 °F - 60.8 °F 73% 29.89 in 10.0 mi South 10.4 mph 18.4 mph N/A   Clear
5:48 AM 69.8 °F - 60.8 °F 73% 29.89 in 13.0 mi South 12.7 mph 17.3 mph N/A   Clear
5:55 AM 69.8 °F - 60.8 °F 73% 29.89 in 10.0 mi South 10.4 mph 16.1 mph N/A   Clear
6:50 AM 69.8 °F - 62.6 °F 78% 29.91 in 13.0 mi South 11.5 mph 21.9 mph N/A   Clear
7:00 AM 69.8 °F - 62.6 °F 78% 29.92 in 13.0 mi South 12.7 mph 20.7 mph N/A   Mostly Cloudy
7:56 AM 69.8 °F - 62.6 °F 78% 29.94 in 10.0 mi South 9.2 mph 17.3 mph N/A   Overcast
9:47 AM 75.2 °F - 62.6 °F 65% 29.97 in 8.0 mi South 18.4 mph 27.6 mph N/A   Mostly Cloudy
10:55 AM 78.8 °F - 60.8 °F 54% 29.97 in 10.0 mi South 10.4 mph 23.0 mph N/A   Scattered Clouds
11:47 AM 80.6 °F 81.1 °F 59.0 °F 48% 29.96 in 10.0 mi South 18.4 mph 28.8 mph N/A   Scattered Clouds
12:47 PM 84.2 °F 83.5 °F 57.2 °F 40% 29.96 in 13.0 mi South 17.3 mph 25.3 mph N/A   Scattered Clouds
1:54 PM 86.0 °F 84.5 °F 55.4 °F 35% 29.93 in 13.0 mi SSE 20.7 mph 29.9 mph N/A   Partly Cloudy
2:52 PM 87.8 °F 86.1 °F 55.4 °F 33% 29.91 in 13.0 mi South 20.7 mph 31.1 mph N/A   Partly Cloudy
3:47 PM 87.8 °F 86.1 °F 55.4 °F 33% 29.90 in 13.0 mi SE 18.4 mph 32.2 mph N/A   Clear
6:47 PM 86.0 °F 84.2 °F 53.6 °F 33% 29.88 in 10.0 mi SE 20.7 mph 29.9 mph N/A   Clear
7:48 PM 84.2 °F - 48.2 °F 29% 29.90 in 10.0 mi SSE 16.1 mph 23.0 mph N/A   Scattered Clouds
8:49 PM 82.4 °F - 51.8 °F 35% 29.92 in 10.0 mi SSE 10.4 mph - N/A   Scattered Clouds
9:47 PM 82.4 °F - 51.8 °F 35% 29.94 in 10.0 mi SSE 15.0 mph - N/A   Scattered Clouds
10:15 PM 80.6 °F - 51.8 °F 37% 29.95 in 10.0 mi SSE 10.4 mph 17.3 mph N/A   Clear
10:35 PM 80.6 °F 80.3 °F 53.6 °F 39% 29.95 in 10.0 mi SSE 13.8 mph - N/A   Clear
10:55 PM 78.8 °F - 55.4 °F 44% 29.96 in 10.0 mi SSE 11.5 mph - N/A   Clear
11:15 PM 78.8 °F - 55.4 °F 44% 29.96 in 10.0 mi SSE 12.7 mph - N/A   Clear
11:35 PM 78.8 °F - 55.4 °F 44% 29.96 in 10.0 mi SSE 16.1 mph 19.6 mph N/A   Clear
11:55 PM 78.8 °F - 55.4 °F 44% 29.95 in 10.0 mi SSE 18.4 mph 26.5 mph N/A   Clear